Regional Weather Roundup
Issued by NWS Upton, NY

Home | Current Version | Previous Version | Text Only | Print | Product List | Glossary On
Versions: 1 2 3 4 5 6 7 8 9 10 11 12 13 14 15 16 17 18 19 20 21 22 23 24 25 26 27 28 29 30 31 32 33 34 35 36 37 38 39 40 41 42 43 44 45 46 47 48 49 50
000
ASUS41 KOKX 230218
RWROKX

REGIONAL WEATHER ROUNDUP
NATIONAL WEATHER SERVICE NEW YORK NY
1000 PM EDT FRI MAY 22 2015

NOTE: "FAIR" INDICATES FEW OR NO CLOUDS BELOW 12,000 FEET WITH NO
SIGNIFICANT WEATHER AND/OR OBSTRUCTIONS TO VISIBILITY.

NYZ071-072-176-178-NJZ106-104-230300-
NEW YORK CITY METRO AREA


CITY           SKY/WX    TMP DP  RH WIND       PRES   REMARKS
CENTRAL PARK   PTCLDY    66  34  30 N10       30.11R
LAGUARDIA APRT PTCLDY    66  34  30 NW18G26   30.07R
KENNEDY INTL   MOCLDY    68  40  35 NW14      30.07R
NEWARK/LIBERTY MOCLDY    64  41  42 NW15      30.08R
BRNX BOT. GARD   N/A     63  32  31 NW3       30.11R
TETERBORO      CLEAR     64  31  28 NW13      30.08R
$$

NYZ177-179-078>081-230300-
LONG ISLAND NEW YORK

CITY           SKY/WX    TMP DP  RH WIND       PRES   REMARKS
FARMINGDALE    MOCLDY    65  34  31 N9        30.07R
ISLIP          CLOUDY    65  32  29 NW10      30.05R
SHIRLEY        CLOUDY    64  31  28 N8        30.06R
WESTHAMPTON    CLOUDY    62  34  35 N8        30.05R
MONTAUK POINT    N/A     58  42  55 N6        30.05R
$$

NYZ052-065-067-230300-
HUDSON VALLEY

CITY           SKY/WX    TMP DP  RH WIND       PRES   REMARKS
WHITE PLAINS   PTCLDY    59  31  34 NW13      30.08R
NEWBURGH       CLEAR     59  34  38 NW12G17   30.10R
MONTGOMERY     CLEAR     56  33  42 NW6       30.11R
POUGHKEEPSIE   CLEAR     58  31  35 NW8       30.09R
ALBANY         PTCLDY    54  22  28 W16       30.10R
$$

NJZ001-105-106-008-010-013-015-019>022-104-230300-
NEW JERSEY

CITY           SKY/WX    TMP DP  RH WIND       PRES   REMARKS
NEWARK/LIBERTY MOCLDY    64  41  42 NW15      30.08R
TETERBORO      CLEAR     64  31  28 NW13      30.08R
CALDWELL       PTCLDY    62  34  35 VRB7      30.10R
MORRISTOWN     PTCLDY    63  39  42 N7G23     30.11R
SOMERVILLE     MOCLDY    57  44  62 CALM      30.09R
SUSSEX         CLEAR     57  33  40 N3        30.14R
ANDOVER          N/A     58  37  45 N8        30.13R
TRENTON        CLEAR     63  37  38 NW7       30.09R
MILLVILLE      CLEAR     62  46  55 W8        30.11R
ATLANTIC CITY  CLEAR     65  42  43 W7        30.10R
WRIGHTSTOWN    CLEAR     65  36  35 W9        30.07R
TOMS RIVER     CLEAR     52  43  71 SW3       30.09R
BELMAR         CLEAR     59  43  55 CALM      30.08R
$$

PAZ047>061-062-071-230300-
EASTERN PENNSYLVANIA

CITY           SKY/WX    TMP DP  RH WIND       PRES   REMARKS
PHILADELPHIA   CLEAR     69  35  28 W10       30.12R
ALLENTOWN      CLEAR     59  33  37 N9        30.13R
SCRANTON       CLEAR     55  34  45 N7        30.15R
$$

CTZ002-004>006-009-010-012-RIZ004-006-007-MAZ004-011-015-230300-
SOUTHERN NEW ENGLAND
 IN CT

CITY           SKY/WX    TMP DP  RH WIND       PRES   REMARKS
BRADLEY INTL   CLEAR     57  27  31 NW10G17   30.06R
HARTFORD       CLEAR     59  28  30 VRB7G17   30.08R
DANBURY        CLEAR     57  29  34 N7        30.10R
WTRBRY/OXFORD  CLEAR     55  30  38 N7        30.10R
BRIDGEPORT     PTCLDY    63  31  30 N12       30.06R
MERIDEN        CLEAR     60  29  30 NW8       30.08R
NEW HAVEN      PTCLDY    61  31  32 MISG      30.06R
CHESTER        FAIR      57  30  35 N13G18    30.07R
GROTON         PTCLDY    59  29  31 N10       30.04R
WILLIMANTIC    CLEAR     58  28  32 NW6       30.06R

 IN RI

CITY           SKY/WX    TMP DP  RH WIND       PRES   REMARKS
PROVIDENCE     CLEAR     60  25  26 NW9       30.04R
BLOCK ISLAND   CLEAR     57  36  44 N8        30.04R
WESTERLY       CLEAR     60  31  33 N8        30.04R

 IN MA

CITY           SKY/WX    TMP DP  RH WIND       PRES   REMARKS
BOSTON         PTCLDY    61  25  25 W15G21    30.01R
WORCESTER      CLEAR     55  20  25 W21G29    30.04R
WESTFIELD      CLEAR     56  26  31 NW5       30.07R
PROVINCETOWN   PTCLDY    57  43  58 NW10      30.01R
NANTUCKET      CLEAR     55  49  80 W8        30.00R
$$

ANZ330-335-338-340-345-350-353-355-230300-
COASTAL MARINE OBSERVATIONS


STATION/POSITION TIME  SKY/WX   TEMP    WIND        PRES    VSBY  WAVE
                                AIR SEA DIR/SP/G                  HT/PER
                 (UTC)          (F)     (DEG/KT/KT) (MB)    (MI)  (FT/S)
NY HARB ENTRANCE 0150            60 57  260/  8/  8 1017.6          2/ 7
4S FIRE IS       0103               55                N/A           2/ 7
20S FIRE ISLAND  0150            61 56  280/ 14/ 16 1017.3          3/ 4
GREAT SOUTH BAY  0100            65 64  340/  4/  6   N/A
23SW MTP         0150            56 52  260/  8/ 10 1016.7          3/ 5
HUDSON CANYON    NOT AVBL
KINGS POINT      0100            65 57   10/ 10/ 15 1016.3
CENTRAL LI SOUND 0100            60 53  300/ 10/ 14   N/A
EASTERN LI SOUND 0100            58     330/  6/ 10   N/A
ROBBINS REEF     0100            66     300/ 17/ 24 1016.0
$$


>>>>>>>>>>>>>>>>>>>>>>>>>>>> KEY <<<<<<<<<<<<<<<<<<<<<<<<<<<
>                                                          <
>     SKY/WX - SKY CONDITION/PRESENT WEATHER               <
>     TMP    - TEMPERATURE IN FAHRENHEIT                   <
>     DP     - DEWPOINT IN FAHRENHEIT                      <
>     RH     - RELATIVE HUMIDITY IN PERCENT                <
>     WIND   - DIRECTION AND SPEED IN MPH                  <
>     PRES   - MEAN SEA LEVEL PRESSURE IN INCHES OF HG     <
>     WCI    - WIND CHILL INDEX                            <
>     VSB    - VISIBILITY IN MILES                         <
>     HX     - HEAT INDEX                                  <
>     TC     - TEMPERATURE IN CELSIUS                      <
>     VRB    - VARIABLE WIND DIRECTION                     <
>                                                          <
>>>>>>>>>>>>>>>>>>>>>>>>>>>> KEY <<<<<<<<<<<<<<<<<<<<<<<<<<<




USA.gov is the U.S. government's official web portal to all federal, state and local government web resources and services.